This is the latest recevied weather packets stored in our database for station/object AI5YA-13. If no packets are shown the sender has not sent any weather packets the latest 10 day(s).
| Time | Temp. | Humidity | Pressure | Rain* | Wind** | Luminosity | Snow |
|---|---|---|---|---|---|---|---|
| 1778000201 | 26.11° C | 27% | 1010.7 hPa | 0 mm | - | 461 W/m² | - |
| 1777999897 | 26.11° C | 27% | 1010.7 hPa | 0 mm | - | 464 W/m² | - |
| 1777999593 | 26.11° C | 27% | 1010.7 hPa | 0 mm | - | 263 W/m² | - |
| 1777999291 | 26.11° C | 26% | 1010.7 hPa | 0 mm | - | 363 W/m² | - |
| 1777998989 | 26.11° C | 27% | 1010.7 hPa | 0 mm | - | 407 W/m² | - |
| 1777998686 | 26.67° C | 26% | 1010.7 hPa | 0 mm | - | 336 W/m² | - |
| 1777998383 | 26.11° C | 26% | 1010.8 hPa | 0 mm | - | 339 W/m² | - |
| 1777998081 | 26.11° C | 26% | 1010.4 hPa | 0 mm | - | 344 W/m² | - |
| 1777997778 | 25.56° C | 26% | 1010.3 hPa | 0 mm | - | 299 W/m² | - |
| 1777997475 | 25.56° C | 27% | 1010.6 hPa | 0 mm | - | 291 W/m² | - |
| 1777997173 | 25.56° C | 27% | 1010.4 hPa | 0 mm | - | 246 W/m² | - |
| 1777996870 | 25.56° C | 27% | 1010.4 hPa | 0 mm | - | 234 W/m² | - |
| 1777996566 | 25.56° C | 27% | 1010.4 hPa | 0 mm | - | 222 W/m² | - |
| 1777996262 | 25.56° C | 27% | 1010.2 hPa | 0 mm | - | 223 W/m² | - |
| 1777995958 | 25.56° C | 27% | 1010.6 hPa | 0 mm | - | 246 W/m² | - |
| 1777995655 | 25.56° C | 27% | 1010.3 hPa | 0 mm | - | 234 W/m² | - |
| 1777995352 | 25.56° C | 27% | 1010.3 hPa | 0 mm | - | 252 W/m² | - |
| 1777995050 | 25.56° C | 27% | 1010 hPa | 0 mm | - | 272 W/m² | - |
| 1777994746 | 25.56° C | 27% | 1010.2 hPa | 0 mm | - | 260 W/m² | - |
| 1777994442 | 25.56° C | 27% | 1010 hPa | 0 mm | - | 278 W/m² | - |
| 1777994137 | 25.56° C | 27% | 1010 hPa | 0 mm | - | 342 W/m² | - |
| 1777993835 | 26.11° C | 26% | 1010.1 hPa | 0 mm | - | 367 W/m² | - |
| 1777993531 | 26.11° C | 28% | 1010.3 hPa | 0 mm | - | 395 W/m² | - |
| 1777993227 | 25° C | 28% | 1010.2 hPa | 0 mm | - | 308 W/m² | - |
| 1777992923 | 25° C | 28% | 1010.1 hPa | 0 mm | - | 218 W/m² | - |
* Rain latest hour (hover to see other rain measurements)
** Current wind speed in m/s (hover to see current wind gust speed)